AMC-3

Last updated on Sun Jun 21 2026 00:03:03 GMT+0000 (Coordinated Universal Time)

1 24936U 97050A 26171.36345514 .00000032 00000+0 00000+0 0 9996 2 24936 8.1731 63.9526 0004276 28.7988 162.4826 0.99063277 52467
UTC large
Height (km)
Speed (km/s)
/
Latitude / Longitude
Inclination (degrees)
Orbital Period (minutes)
Azimuth
Elevation
Range (km)
Doppler Factor

Next 0 passes for location: London (51.5072 / 0.1276)

No passes found over London.
AMC-3